Time,TemperatureF,DewpointF,PressureIn,WindDirection,WindDirectionDegrees,WindSpeedMPH,WindSpeedGustMPH,Humidity,HourlyPrecipIn,Conditions,Clouds,dailyrainin,SolarRadiationWatts/m^2,SoftwareType,DateUTC
2013-01-10 00:02:00,50.0,49.0,-100.00,NNE,30,6.0,16.0,95,0.00,,,0.03,0.000000,,2013-01-10 10:02:00,
2013-01-10 00:12:00,50.0,49.0,-100.00,NNE,30,6.0,16.0,95,0.00,,,0.03,0.000000,,2013-01-10 10:12:00,
2013-01-10 00:22:00,50.0,49.0,-100.00,NNE,30,6.0,16.0,95,0.00,,,0.03,0.000000,,2013-01-10 10:22:00,
2013-01-10 00:32:00,50.0,49.0,-100.00,NNE,30,6.0,16.0,95,0.00,,,0.03,0.000000,,2013-01-10 10:32:00,
2013-01-10 00:52:00,49.0,47.0,-100.00,North,356,5.0,16.0,94,0.00,,,0.03,0.000000,,2013-01-10 10:52:00,
2013-01-10 01:02:00,49.0,47.0,-100.00,North,356,5.0,16.0,94,0.00,,,0.03,0.000000,,2013-01-10 11:02:00,
2013-01-10 01:12:00,49.0,47.0,-100.00,North,356,5.0,16.0,94,0.00,,,0.03,0.000000,,2013-01-10 11:12:00,
2013-01-10 01:22:00,49.0,47.0,-100.00,North,356,5.0,16.0,94,0.00,,,0.03,0.000000,,2013-01-10 11:22:00,
2013-01-10 01:32:00,49.0,47.0,-100.00,North,356,5.0,16.0,94,0.00,,,0.03,0.000000,,2013-01-10 11:32:00,
2013-01-10 02:02:00,45.0,43.0,-100.00,NW,319,6.0,13.0,93,0.00,,,0.03,0.000000,,2013-01-10 12:02:00,
2013-01-10 02:12:00,45.0,43.0,-100.00,NW,319,6.0,13.0,93,0.00,,,0.03,0.000000,,2013-01-10 12:12:00,
2013-01-10 02:22:00,45.0,43.0,-100.00,NW,319,6.0,13.0,93,0.00,,,0.03,0.000000,,2013-01-10 12:22:00,
2013-01-10 02:32:00,45.0,43.0,-100.00,NW,319,6.0,13.0,93,0.00,,,0.03,0.000000,,2013-01-10 12:32:00,
2013-01-10 04:53:00,43.0,39.0,-100.00,NW,313,6.0,10.0,87,-99.99,,,0.04,0.000000,,2013-01-10 14:53:00,
2013-01-10 05:03:00,43.0,39.0,-100.00,NW,313,6.0,10.0,87,-99.99,,,0.04,0.000000,,2013-01-10 15:03:00,
2013-01-10 05:12:00,43.0,39.0,-100.00,NW,313,6.0,10.0,87,-99.99,,,0.04,0.000000,,2013-01-10 15:12:00,
2013-01-10 05:22:00,43.0,39.0,-100.00,NW,313,6.0,10.0,87,-99.99,,,0.04,0.000000,,2013-01-10 15:22:00,
2013-01-10 05:32:00,43.0,39.0,-100.00,NW,313,6.0,10.0,87,-99.99,,,0.04,0.000000,,2013-01-10 15:32:00,
2013-01-10 05:53:00,44.0,38.0,-100.00,NW,325,7.0,10.0,80,0.00,,,0.04,0.000000,,2013-01-10 15:53:00,
2013-01-10 06:02:00,44.0,38.0,-100.00,NW,325,7.0,10.0,80,0.00,,,0.04,0.000000,,2013-01-10 16:02:00,
2013-01-10 06:12:00,44.0,38.0,-100.00,NW,325,7.0,10.0,80,0.00,,,0.04,0.000000,,2013-01-10 16:12:00,
2013-01-10 06:22:00,44.0,38.0,-100.00,NW,325,7.0,10.0,80,0.00,,,0.04,0.000000,,2013-01-10 16:22:00,
2013-01-10 06:32:00,44.0,38.0,-100.00,NW,325,7.0,10.0,80,0.00,,,0.04,0.000000,,2013-01-10 16:32:00,
2013-01-10 06:53:00,45.0,38.0,-100.00,NW,323,6.0,12.0,77,0.00,,,0.04,0.000000,,2013-01-10 16:53:00,
2013-01-10 07:02:00,45.0,38.0,-100.00,NW,323,6.0,12.0,77,0.00,,,0.04,0.000000,,2013-01-10 17:02:00,
2013-01-10 07:12:00,45.0,38.0,-100.00,NW,323,6.0,12.0,77,0.00,,,0.04,0.000000,,2013-01-10 17:12:00,
2013-01-10 07:22:00,45.0,38.0,-100.00,NW,323,6.0,12.0,77,0.00,,,0.04,0.000000,,2013-01-10 17:22:00,
2013-01-10 07:33:00,45.0,38.0,-100.00,NW,323,6.0,12.0,77,0.00,,,0.04,0.000000,,2013-01-10 17:33:00,
2013-01-10 07:53:00,49.0,40.0,-100.00,North,350,5.0,11.0,71,0.00,,,0.04,58.000000,,2013-01-10 17:53:00,
2013-01-10 08:03:00,49.0,40.0,-100.00,North,350,5.0,11.0,71,0.00,,,0.04,58.000000,,2013-01-10 18:03:00,
2013-01-10 08:12:00,49.0,40.0,-100.00,North,350,5.0,11.0,71,0.00,,,0.04,58.000000,,2013-01-10 18:12:00,
2013-01-10 08:22:00,49.0,40.0,-100.00,North,350,5.0,11.0,71,0.00,,,0.04,58.000000,,2013-01-10 18:22:00,
2013-01-10 08:32:00,49.0,40.0,-100.00,North,350,5.0,11.0,71,0.00,,,0.04,58.000000,,2013-01-10 18:32:00,
2013-01-10 08:53:00,60.0,49.0,-100.00,North,5,6.0,10.0,66,0.00,,,0.04,276.000000,,2013-01-10 18:53:00,
2013-01-10 09:02:00,60.0,49.0,-100.00,North,5,6.0,10.0,66,0.00,,,0.04,276.000000,,2013-01-10 19:02:00,
2013-01-10 09:12:00,60.0,49.0,-100.00,North,5,6.0,10.0,66,0.00,,,0.04,276.000000,,2013-01-10 19:12:00,
2013-01-10 09:23:00,60.0,49.0,-100.00,North,5,6.0,10.0,66,0.00,,,0.04,276.000000,,2013-01-10 19:23:00,
2013-01-10 09:32:00,60.0,49.0,-100.00,North,5,6.0,10.0,66,0.00,,,0.04,276.000000,,2013-01-10 19:32:00,
2013-01-10 09:53:00,63.0,47.0,-100.00,North,9,7.0,12.0,55,0.00,,,0.04,490.000000,,2013-01-10 19:53:00,
2013-01-10 10:02:00,63.0,47.0,-100.00,North,9,7.0,12.0,55,0.00,,,0.04,490.000000,,2013-01-10 20:02:00,
2013-01-10 10:12:00,63.0,47.0,-100.00,North,9,7.0,12.0,55,0.00,,,0.04,490.000000,,2013-01-10 20:12:00,
2013-01-10 10:22:00,63.0,47.0,-100.00,North,9,7.0,12.0,55,0.00,,,0.04,490.000000,,2013-01-10 20:22:00,
2013-01-10 10:32:00,63.0,47.0,-100.00,North,9,7.0,12.0,55,0.00,,,0.04,490.000000,,2013-01-10 20:32:00,
2013-01-10 10:53:00,62.0,52.0,-100.00,NNE,31,8.0,14.0,69,0.00,,,0.04,636.000000,,2013-01-10 20:53:00,
2013-01-10 11:03:00,62.0,52.0,-100.00,NNE,31,8.0,14.0,69,0.00,,,0.04,636.000000,,2013-01-10 21:03:00,
2013-01-10 11:12:00,62.0,52.0,-100.00,NNE,31,8.0,14.0,69,0.00,,,0.04,636.000000,,2013-01-10 21:12:00,
2013-01-10 11:22:00,62.0,52.0,-100.00,NNE,31,8.0,14.0,69,0.00,,,0.04,636.000000,,2013-01-10 21:22:00,
2013-01-10 11:32:00,62.0,52.0,-100.00,NNE,31,8.0,14.0,69,0.00,,,0.04,636.000000,,2013-01-10 21:32:00,
2013-01-10 12:03:00,64.0,47.0,-100.00,NNE,21,10.0,14.0,54,0.00,,,0.04,804.000000,,2013-01-10 22:03:00,
2013-01-10 12:12:00,64.0,47.0,-100.00,NNE,21,10.0,14.0,54,0.00,,,0.04,804.000000,,2013-01-10 22:12:00,
2013-01-10 12:32:00,64.0,47.0,-100.00,NNE,21,10.0,14.0,54,0.00,,,0.04,804.000000,,2013-01-10 22:32:00,
2013-01-10 13:02:00,64.0,43.0,-100.00,NNE,24,11.0,19.0,46,0.00,,,0.04,873.000000,,2013-01-10 23:02:00,
2013-01-10 13:12:00,64.0,43.0,-100.00,NNE,24,11.0,19.0,46,0.00,,,0.04,873.000000,,2013-01-10 23:12:00,
2013-01-10 13:22:00,64.0,43.0,-100.00,NNE,24,11.0,19.0,46,0.00,,,0.04,873.000000,,2013-01-10 23:22:00,
2013-01-10 13:32:00,64.0,43.0,-100.00,NNE,24,11.0,19.0,46,0.00,,,0.04,873.000000,,2013-01-10 23:32:00,
2013-01-10 13:53:00,66.0,47.0,-100.00,NW,305,11.0,21.0,50,0.00,,,0.04,876.000000,,2013-01-10 23:53:00,
2013-01-10 14:02:00,66.0,47.0,-100.00,NW,305,11.0,21.0,50,0.00,,,0.04,876.000000,,2013-01-11 00:02:00,
2013-01-10 14:12:00,66.0,47.0,-100.00,NW,305,11.0,21.0,50,0.00,,,0.04,876.000000,,2013-01-11 00:12:00,
2013-01-10 14:22:00,66.0,47.0,-100.00,NW,305,11.0,21.0,50,0.00,,,0.04,876.000000,,2013-01-11 00:22:00,
2013-01-10 14:32:00,66.0,47.0,-100.00,NW,305,11.0,21.0,50,0.00,,,0.04,876.000000,,2013-01-11 00:32:00,
2013-01-10 14:53:00,65.0,45.0,-100.00,NNE,17,12.0,22.0,49,0.00,,,0.04,811.000000,,2013-01-11 00:53:00,
2013-01-10 15:02:00,65.0,45.0,-100.00,NNE,17,12.0,22.0,49,0.00,,,0.04,811.000000,,2013-01-11 01:02:00,
2013-01-10 15:12:00,65.0,45.0,-100.00,NNE,17,12.0,22.0,49,0.00,,,0.04,811.000000,,2013-01-11 01:12:00,
2013-01-10 15:22:00,65.0,45.0,-100.00,NNE,17,12.0,22.0,49,0.00,,,0.04,811.000000,,2013-01-11 01:22:00,
2013-01-10 15:32:00,65.0,45.0,-100.00,NNE,17,12.0,22.0,49,0.00,,,0.04,811.000000,,2013-01-11 01:32:00,
2013-01-10 15:53:00,62.0,45.0,-100.00,North,11,11.0,21.0,53,0.00,,,0.04,676.000000,,2013-01-11 01:53:00,
2013-01-10 16:02:00,62.0,45.0,-100.00,North,11,11.0,21.0,53,0.00,,,0.04,676.000000,,2013-01-11 02:02:00,
2013-01-10 16:12:00,62.0,45.0,-100.00,North,11,11.0,21.0,53,0.00,,,0.04,676.000000,,2013-01-11 02:12:00,
2013-01-10 16:22:00,62.0,45.0,-100.00,North,11,11.0,21.0,53,0.00,,,0.04,676.000000,,2013-01-11 02:22:00,
2013-01-10 16:32:00,62.0,45.0,-100.00,North,11,11.0,21.0,53,0.00,,,0.04,676.000000,,2013-01-11 02:32:00,
2013-01-10 16:54:00,59.0,43.0,-100.00,East,88,11.0,23.0,55,0.00,,,0.04,458.000000,,2013-01-11 02:54:00,
2013-01-10 17:02:00,59.0,43.0,-100.00,East,88,11.0,23.0,55,0.00,,,0.04,458.000000,,2013-01-11 03:02:00,
2013-01-10 17:12:00,59.0,43.0,-100.00,East,88,11.0,23.0,55,0.00,,,0.04,458.000000,,2013-01-11 03:12:00,
2013-01-10 17:22:00,59.0,43.0,-100.00,East,88,11.0,23.0,55,0.00,,,0.04,458.000000,,2013-01-11 03:22:00,
2013-01-10 17:32:00,59.0,43.0,-100.00,East,88,11.0,23.0,55,0.00,,,0.04,458.000000,,2013-01-11 03:32:00,
2013-01-10 18:02:00,57.0,44.0,-100.00,NNE,21,11.0,21.0,61,0.00,,,0.04,230.000000,,2013-01-11 04:02:00,
2013-01-10 18:12:00,57.0,44.0,-100.00,NNE,21,11.0,21.0,61,0.00,,,0.04,230.000000,,2013-01-11 04:12:00,
2013-01-10 18:22:00,57.0,44.0,-100.00,NNE,21,11.0,21.0,61,0.00,,,0.04,230.000000,,2013-01-11 04:22:00,
2013-01-10 18:32:00,57.0,44.0,-100.00,NNE,21,11.0,21.0,61,0.00,,,0.04,230.000000,,2013-01-11 04:32:00,
2013-01-10 19:03:00,50.0,40.0,-100.00,North,11,7.0,21.0,68,0.00,,,0.03,30.000000,,2013-01-11 05:03:00,
2013-01-10 19:12:00,50.0,40.0,-100.00,North,11,7.0,21.0,68,0.00,,,0.03,30.000000,,2013-01-11 05:12:00,
2013-01-10 19:22:00,50.0,40.0,-100.00,North,11,7.0,21.0,68,0.00,,,0.03,30.000000,,2013-01-11 05:22:00,
2013-01-10 19:33:00,50.0,40.0,-100.00,North,11,7.0,21.0,68,0.00,,,0.03,30.000000,,2013-01-11 05:33:00,
2013-01-10 19:53:00,51.0,40.0,-100.00,NNW,337,8.0,15.0,66,0.00,,,0.03,0.000000,,2013-01-11 05:53:00,
2013-01-10 20:02:00,51.0,40.0,-100.00,NNW,337,8.0,15.0,66,0.00,,,0.03,0.000000,,2013-01-11 06:02:00,
2013-01-10 20:12:00,51.0,40.0,-100.00,NNW,337,8.0,15.0,66,0.00,,,0.03,0.000000,,2013-01-11 06:12:00,
2013-01-10 20:22:00,51.0,40.0,-100.00,NNW,337,8.0,15.0,66,0.00,,,0.03,0.000000,,2013-01-11 06:22:00,
2013-01-10 20:32:00,51.0,40.0,-100.00,NNW,337,8.0,15.0,66,0.00,,,0.03,0.000000,,2013-01-11 06:32:00,
2013-01-10 20:52:00,49.0,40.0,-100.00,NW,314,9.0,17.0,71,0.00,,,0.02,0.000000,,2013-01-11 06:52:00,
2013-01-10 21:02:00,49.0,40.0,-100.00,NW,314,9.0,17.0,71,0.00,,,0.02,0.000000,,2013-01-11 07:02:00,
2013-01-10 21:11:00,49.0,40.0,-100.00,NW,314,9.0,17.0,71,0.00,,,0.02,0.000000,,2013-01-11 07:11:00,
2013-01-10 21:22:00,49.0,40.0,-100.00,NW,314,9.0,17.0,71,0.00,,,0.02,0.000000,,2013-01-11 07:22:00,
2013-01-10 21:32:00,49.0,40.0,-100.00,NW,314,9.0,17.0,71,0.00,,,0.02,0.000000,,2013-01-11 07:32:00,
2013-01-10 21:52:00,49.0,38.0,-100.00,North,351,6.0,15.0,65,0.00,,,0.02,0.000000,,2013-01-11 07:52:00,
2013-01-10 22:02:00,49.0,38.0,-100.00,North,351,6.0,15.0,65,0.00,,,0.02,0.000000,,2013-01-11 08:02:00,
2013-01-10 22:12:00,49.0,38.0,-100.00,North,351,6.0,15.0,65,0.00,,,0.02,0.000000,,2013-01-11 08:12:00,
2013-01-10 22:22:00,49.0,38.0,-100.00,North,351,6.0,15.0,65,0.00,,,0.02,0.000000,,2013-01-11 08:22:00,
2013-01-10 22:32:00,49.0,38.0,-100.00,North,351,6.0,15.0,65,0.00,,,0.02,0.000000,,2013-01-11 08:32:00,
2013-01-10 23:02:00,50.0,39.0,-100.00,NW,325,9.0,17.0,66,0.00,,,0.01,0.000000,,2013-01-11 09:02:00,
2013-01-10 23:12:00,50.0,39.0,-100.00,NW,325,9.0,17.0,66,0.00,,,0.01,0.000000,,2013-01-11 09:12:00,
2013-01-10 23:22:00,50.0,39.0,-100.00,NW,325,9.0,17.0,66,0.00,,,0.01,0.000000,,2013-01-11 09:22:00,
2013-01-10 23:32:00,50.0,39.0,-100.00,NW,325,9.0,17.0,66,0.00,,,0.01,0.000000,,2013-01-11 09:32:00,